Orbital Elements
The following orbital elements are taken from MPC 51823:
Epoch 2007 June 29.0 TT = JDT 2454280.5
T 2007 July 7.2386 TT MPC
q 2.173342 (2000.0) P Q
n 0.1514859 Peri. 24.2427 -0.8954873 +0.4450838
a 3.485148 Node 182.1883 -0.4153513 -0.8370408
e 0.376399 Incl. 2.5769 -0.1599555 -0.3182188
P 6.51
From 74 observations 1981-2000, mean residual 0".7. Nongravitational
parameters A1 = +0.45, A2 = -0.3539.
|